Location: Scenic
(43.7797°N, 102.5549°W)
Time: 17:08:08
(UTC-07:00)

ISS - Visible Passes

Search period start: 22 January 2018 00:00
Search period end: 01 February 2018 00:00
Orbit: 402 x 407 km, 51.6° (Epoch: 23 January)

Date Brightness Start Highest point End Pass type
(mag) Time Alt. Az. Time Alt. Az. Time Alt. Az.
24 Jan -2.1 18:45:12 10° SSW 18:46:52 23° S 18:46:52 23° S visible
25 Jan -2.0 17:53:43 10° S 17:56:00 18° SE 17:57:05 16° ESE visible
25 Jan -0.9 19:28:57 10° WSW 19:29:46 16° WSW 19:29:46 16° WSW visible
26 Jan -4.0 18:36:37 10° SW 18:39:51 75° SE 18:39:52 75° SE visible
27 Jan -3.1 17:44:32 10° SSW 17:47:35 40° SE 17:49:54 16° ENE visible
27 Jan -1.3 19:21:04 10° W 19:22:34 22° WNW 19:22:34 22° WNW visible
28 Jan -3.3 18:28:28 10° WSW 18:31:39 53° NNW 18:32:31 39° NNE visible
29 Jan -3.9 17:36:01 10° WSW 17:39:16 90° NW 17:42:24 11° ENE visible
29 Jan -1.5 19:13:19 10° WNW 19:15:03 21° NW 19:15:03 21° NW visible
30 Jan -2.5 18:20:34 10° W 18:23:32 31° NNW 18:24:53 22° NNE visible
31 Jan -3.1 17:27:53 10° W 17:31:02 45° NNW 17:34:12 10° NE visible
31 Jan -1.6 19:05:31 10° WNW 19:07:19 19° NNW 19:07:19 19° NNW visible
